TimeCDT,TemperatureF,Dew PointF,Humidity,Sea Level PressureIn,VisibilityMPH,Wind Direction,Wind SpeedMPH,Gust SpeedMPH,PrecipitationIn,Events,Conditions,WindDirDegrees,DateUTC
12:53 AM,71.1,70.0,96,29.94,3.0,Calm,Calm,-,N/A,,Mostly Cloudy,0,2013-08-03 05:53:00
1:53 AM,72.0,70.0,93,29.94,4.0,Calm,Calm,-,N/A,,Overcast,0,2013-08-03 06:53:00
2:53 AM,72.0,70.0,93,29.93,2.5,Calm,Calm,-,N/A,,Overcast,0,2013-08-03 07:53:00
3:02 AM,71.6,69.8,94,29.94,3.0,Calm,Calm,-,N/A,,Mostly Cloudy,0,2013-08-03 08:02:00
3:13 AM,71.6,69.8,94,29.94,2.5,Calm,Calm,-,N/A,,Mostly Cloudy,0,2013-08-03 08:13:00
3:20 AM,71.6,69.8,94,29.94,3.0,Calm,Calm,-,N/A,,Mostly Cloudy,0,2013-08-03 08:20:00
3:53 AM,72.0,70.0,93,29.93,4.0,Calm,Calm,-,N/A,,Overcast,0,2013-08-03 08:53:00
4:53 AM,70.0,69.1,97,29.93,3.0,Calm,Calm,-,N/A,,Partly Cloudy,0,2013-08-03 09:53:00
4:58 AM,71.6,69.8,94,29.94,1.8,Calm,Calm,-,N/A,,Partly Cloudy,0,2013-08-03 09:58:00
5:19 AM,69.8,69.8,100,29.95,2.0,Calm,Calm,-,N/A,,Scattered Clouds,0,2013-08-03 10:19:00
5:26 AM,71.6,69.8,94,29.95,1.8,Calm,Calm,-,N/A,,Scattered Clouds,0,2013-08-03 10:26:00
5:41 AM,71.6,69.8,94,29.96,2.0,Calm,Calm,-,N/A,,Scattered Clouds,0,2013-08-03 10:41:00
5:46 AM,71.6,69.8,94,29.97,2.5,Calm,Calm,-,N/A,,Mostly Cloudy,0,2013-08-03 10:46:00
5:51 AM,71.6,69.8,94,29.97,3.0,NNW,4.6,-,N/A,,Mostly Cloudy,340,2013-08-03 10:51:00
5:53 AM,71.1,69.1,93,29.96,3.0,North,8.1,-,N/A,,Mostly Cloudy,360,2013-08-03 10:53:00
6:42 AM,71.6,69.8,94,29.97,3.0,NNE,6.9,-,N/A,,Overcast,20,2013-08-03 11:42:00
6:53 AM,72.0,69.1,91,29.96,3.0,North,4.6,-,N/A,,Overcast,10,2013-08-03 11:53:00
7:53 AM,73.0,69.1,87,29.99,6.0,North,5.8,-,N/A,,Overcast,10,2013-08-03 12:53:00
8:40 AM,73.4,69.8,88,30.03,8.0,Calm,Calm,-,N/A,,Overcast,0,2013-08-03 13:40:00
8:53 AM,75.0,69.1,82,30.03,8.0,Calm,Calm,-,N/A,,Overcast,0,2013-08-03 13:53:00
9:53 AM,75.9,69.1,79,30.03,10.0,North,6.9,-,N/A,,Overcast,10,2013-08-03 14:53:00
10:53 AM,77.0,69.1,76,30.05,7.0,NNW,6.9,-,N/A,,Overcast,330,2013-08-03 15:53:00
11:53 AM,79.0,69.1,72,30.05,10.0,Variable,5.8,-,N/A,,Mostly Cloudy,0,2013-08-03 16:53:00
12:53 PM,82.9,69.1,63,30.04,10.0,North,5.8,-,N/A,,Mostly Cloudy,360,2013-08-03 17:53:00
1:53 PM,84.9,70.0,61,30.04,10.0,NNW,8.1,-,N/A,,Scattered Clouds,340,2013-08-03 18:53:00
2:53 PM,86.0,69.1,57,30.03,10.0,North,9.2,-,N/A,,Partly Cloudy,10,2013-08-03 19:53:00
3:53 PM,86.0,68.0,55,30.02,10.0,NNE,9.2,-,N/A,,Clear,30,2013-08-03 20:53:00
4:53 PM,86.0,68.0,55,30.03,10.0,North,12.7,-,N/A,,Scattered Clouds,360,2013-08-03 21:53:00
5:53 PM,84.9,66.0,53,30.03,10.0,North,12.7,-,N/A,,Partly Cloudy,10,2013-08-03 22:53:00
6:53 PM,82.9,64.9,54,30.03,10.0,North,10.4,-,N/A,,Partly Cloudy,10,2013-08-03 23:53:00
7:53 PM,79.0,64.9,62,30.04,10.0,North,8.1,-,N/A,,Clear,10,2013-08-04 00:53:00
8:53 PM,75.0,64.0,69,30.06,10.0,NE,4.6,-,N/A,,Clear,40,2013-08-04 01:53:00
9:53 PM,73.9,63.0,68,30.09,10.0,Calm,Calm,-,N/A,,Clear,0,2013-08-04 02:53:00
10:53 PM,72.0,62.1,71,30.10,10.0,Calm,Calm,-,N/A,,Clear,0,2013-08-04 03:53:00
11:53 PM,69.1,63.0,81,30.10,10.0,Calm,Calm,-,N/A,,Clear,0,2013-08-04 04:53:00